Home   Weather   USA   Spooner   Past weeks
Flag for USA

Past Weather in Spooner, Wisconsin, USA — Yesterday and Last 2 Weeks

Currently: 45 °F. Overcast. (Weather station: Burnett County Airport, USA). See more current weather

Past Weather in Spooner — Graph

°F

Spooner Temperature Yesterday

Maximum temperature yesterday: 53 °F (at 3:55 pm)
Minimum temperature yesterday: 30 °F (at 2:35 am)
Average temperature yesterday: 44 °F

High & Low Weather Summary for the Past Weeks

 TemperatureHumidityPressure
High75 °F (Oct 18, 3:15 pm)99% (Oct 17, 7:55 am)30.19 "Hg (Oct 17, 7:55 am)
Low22 °F (Oct 24, 8:15 am)24% (Oct 17, 3:55 pm)29.54 "Hg (Oct 13, 8:55 pm)
Average47 °F71%29.98 "Hg
* Reported Oct 12 12:15 pm — Oct 27 12:35 pm, Spooner. Weather by CustomWeather, © 2021

Note: Actual official high and low records may vary slightly from our data, if they occured in-between our weather recording intervals... More about our weather records

Spooner Weather History for the Previous 24 Hours

Scroll right to see more
 ConditionsComfort  
Time TempWeatherWind HumidityBarometerVisibility
12:35 pm
Wed, Oct 27
45 °FOvercast.9 mph82%29.89 "Hg10 mi
12:15 pm45 °FMostly cloudy.8 mph84%29.89 "Hg10 mi
11:55 am45 °FOvercast.8 mph86%29.90 "Hg10 mi
11:35 am44 °FOvercast.8 mph89%29.91 "Hg10 mi
11:15 am44 °FOvercast.8 mph90%29.92 "Hg10 mi
10:55 am44 °FOvercast.8 mph90%29.91 "Hg10 mi
10:35 am43 °FDrizzle. Overcast.8 mph91%29.91 "Hg10 mi
10:15 am43 °FDrizzle. More clouds than sun.7 mph90%29.90 "Hg10 mi
9:55 am44 °FDrizzle. More clouds than sun.9 mph88%29.90 "Hg10 mi
9:35 am44 °FLight rain. More clouds than sun.8 mph86%29.91 "Hg7 mi
9:15 am44 °FLight rain. Mostly cloudy.8 mph86%29.91 "Hg10 mi
8:55 am43 °FLight rain. Cloudy.12 mph86%29.90 "Hg10 mi
8:35 am43 °FLight rain. Mostly cloudy.8 mph85%29.90 "Hg10 mi
8:15 am43 °FLight rain. Mostly cloudy.10 mph84%29.90 "Hg10 mi
7:55 am43 °FOvercast.9 mph80%29.91 "Hg10 mi
7:35 am43 °FMostly cloudy.12 mph84%29.91 "Hg10 mi
7:15 am43 °FLight rain. Overcast.10 mph81%29.91 "Hg10 mi
6:55 am44 °FLight rain. Mostly cloudy.8 mph76%29.92 "Hg10 mi
6:15 am44 °FOvercast.9 mph72%29.93 "Hg10 mi
5:55 am44 °FMostly cloudy.10 mph73%29.94 "Hg10 mi
5:35 am45 °FRain. Overcast.7 mph68%29.94 "Hg10 mi
5:15 am45 °FOvercast.9 mph64%29.94 "Hg10 mi
4:55 am45 °FOvercast.9 mph64%29.94 "Hg10 mi
4:35 am45 °FOvercast.12 mph64%29.94 "Hg10 mi
4:15 am45 °FOvercast.12 mph63%29.95 "Hg10 mi
3:35 am46 °FOvercast.9 mph59%29.96 "Hg10 mi
3:15 am46 °FMostly cloudy.9 mph59%29.96 "Hg10 mi
2:55 am46 °FOvercast.6 mph62%29.96 "Hg10 mi
2:35 am46 °FMostly cloudy.8 mph61%29.95 "Hg10 mi
2:15 am46 °FOvercast.10 mph62%29.95 "Hg10 mi
1:55 am46 °FOvercast.8 mph61%29.94 "Hg10 mi
1:35 am46 °FOvercast.9 mph61%29.94 "Hg10 mi
1:15 am45 °FOvercast.7 mph61%29.95 "Hg10 mi
12:55 am44 °FPassing clouds.8 mph62%29.95 "Hg10 mi
12:35 am45 °FPassing clouds.6 mph61%29.95 "Hg10 mi
11:55 pm
Tue, Oct 26
45 °FClear.9 mph60%29.94 "Hg10 mi
11:35 pm46 °FClear.10 mph59%29.95 "Hg10 mi
11:15 pm46 °FClear.12 mph59%29.95 "Hg10 mi
10:55 pm46 °FClear.10 mph59%29.96 "Hg10 mi
10:35 pm45 °FClear.7 mph60%29.96 "Hg10 mi
10:15 pm45 °FClear.6 mph60%29.97 "Hg10 mi
9:55 pm45 °FClear.6 mph60%29.97 "Hg10 mi
9:35 pm45 °FClear.3 mph60%29.97 "Hg10 mi
9:15 pm45 °FClear.7 mph59%29.97 "Hg10 mi
8:35 pm45 °FClear.7 mph57%29.96 "Hg10 mi
8:15 pm46 °FClear.8 mph56%29.96 "Hg10 mi
7:15 pm46 °FClear.6 mph53%29.97 "Hg10 mi
6:35 pm48 °FClear.No wind46%29.97 "Hg10 mi
6:15 pm49 °FClear.3 mph44%29.97 "Hg10 mi
5:55 pm50 °FSunny.7 mph43%29.97 "Hg10 mi
5:35 pm51 °FSunny.8 mph43%29.96 "Hg10 mi
5:15 pm52 °FSunny.9 mph41%29.97 "Hg10 mi
4:55 pm52 °FSunny.8 mph42%29.97 "Hg10 mi
4:35 pm53 °FSunny.13 mph42%29.97 "Hg10 mi
4:15 pm53 °FSunny.8 mph42%29.99 "Hg10 mi
3:55 pm53 °FSunny.9 mph43%30.00 "Hg10 mi
3:35 pm52 °FSunny.12 mph44%30.00 "Hg10 mi
3:15 pm52 °FSunny.9 mph45%30.01 "Hg10 mi
2:35 pm51 °FSunny.9 mph47%30.03 "Hg10 mi
1:55 pm49 °FSunny.10 mph51%30.05 "Hg10 mi
1:35 pm49 °FSunny.13 mph51%30.06 "Hg10 mi
1:15 pm48 °FSunny.8 mph55%30.07 "Hg10 mi
Weather by CustomWeather, © 2021

See weather overview